www.pogodaiklimat.ru

Погода и климат >> Архив погоды >> Австрия >> Винер-Нойштадт


ПОГОДА в Винер-Нойштадт

  • Прогноз погоды в Винер-Нойштадт
  • Монитор погоды в Винер-Нойштадт

АРХИВ ПОГОДЫ в Винер-Нойштадт

Время (UTC), дата Ветер
(напр.,м/с)
 
Видим.   Явления Облачность Т
(С)
Тd
(С)
f
(%)
Тe
(С)
Тes
(С)
Комфортность P
(гПа)
Po
(гПа)
Тmin
(С)
Tmax
(С)
R
(мм)
R24
(мм)
S
(см)
19 12.07 З 3 н/о н/о +17.9 +13.2 74 +18 +18 1011.4 979.0
20 12.07 ЮВ 1 н/о н/о +17.7 +13.4 76 +19 +19 1011.2 978.8
21 12.07 ЮЗ 1 н/о н/о +16.9 +13.6 81 +18 +18 1011.4 978.9
22 12.07 штиль 0 н/о н/о +16.9 +13.6 81 +17 +17 1011.7 979.2
23 12.07 З 1 н/о н/о +16.1 +13.6 85 +17 +17 1011.3 978.7
00 13.07 ЮЗ 2 н/о н/о +15.7 +13.7 88 +16 +16 1010.6 978.0
01 13.07 Ю 1 н/о н/о +16.0 +13.2 83 +17 +17 1010.2 977.6
02 13.07 ЮЗ 1 н/о н/о +15.2 +12.8 86 +16 +16 1010.3 977.6
03 13.07 З 8 н/о осадки н/о +17.1 +11.7 71 +16 +16 1010.5 978.0 0.0
04 13.07 З 2 н/о осадки н/о +15.2 +12.6 84 +15 +15 1010.7 978.0 2
05 13.07 ЮЗ 5 35 км в посл. час ливневой дождь 5/1 900 м
[Cu med, cong Ac lent Ci fib]
+19.4 +12.4 64 +20 +21 1011.4 978.6 +23.3
06 13.07 С 1 30 км {дождь} 9/4 600 м
[Cu Sc Ac As]
+15.9 +12.6 81 +17 +18 1011.4 978.2 +14.8 2
07 13.07 С 1 н/о н/о +16.7 +13.0 79 +18 +18 1011.4 978.8 0.0
08 13.07 З 4 н/о в посл. час осадки н/о +16.7 +12.3 75 +16 +16 1011.6 979.0 0.1
09 13.07 СЗ 4 30 км {дождь} 9/6 600 м
[Cu Sc Ac As]
+16.2 +13.3 83 +15 +17 1012.4 979.2
10 13.07 С 5 н/о н/о +17.1 +13.5 79 +16 +16 1011.7 979.2 0.0
11 13.07 С 4 н/о н/о +18.3 +12.6 69 +19 +19 1011.6 979.2
12 13.07 З 5 35 км {дождь} 9/3 750 м
[Cu Sc Ac As]
+18.6 +10.2 58 +19 +21 1012.1 979.2 0.3
14 13.07 СЗ 7 н/о н/о +20.5 +11.4 56 +22 +22 комфорт 1010.6 978.5
15 13.07 СЗ 8-13
{13}
35 км 8/3 750 м
[Cu Sc Ac As]
+19.9 +10.9 56 +21 +21 комфорт 1011.3 978.5
17 13.07 СЗ 8
{14}
н/о н/о +20.3 +10.9 55 +21 +21 комфорт 1011.0 978.8
18 13.07 СЗ 7
{14}
35 км 8/1 750 м
[Cu hum Ac As Ci fib]
+19.4 +11.2 59 +20 +20 1011.8 979.0 +19.3 0.3
19 13.07 З 5 н/о н/о +18.3 +11.3 64 +18 +18 1011.5 979.1
20 13.07 З 6 н/о н/о +17.7 +11.3 66 +17 +17 1012.1 979.6
21 13.07 З 4 н/о н/о +17.4 +11.1 66 +17 +17 1012.3 979.8
22 13.07 З 6 н/о н/о +17.4 +11.2 67 +17 +17 1012.2 979.7
23 13.07 З 7 н/о н/о +17.2 +11.5 69 +16 +16 1012.0 979.5 0.0
00 14.07 СЗ 6 н/о н/о +18.0 +11.1 64 +17 +17 1012.1 979.6 0.0
01 14.07 СЗ 5 н/о н/о +17.3 +11.6 69 +17 +17 1012.1 979.6
02 14.07 СЗ 6 н/о н/о +16.5 +11.7 73 +15 +15 1012.2 979.6
03 14.07 СЗ 6 н/о н/о +16.4 +11.3 72 +15 +15 1012.4 979.8
04 14.07 СЗ 4 н/о н/о +16.6 +11.2 70 +16 +16 1012.6 980.0
05 14.07 С 6 30 км 6/5 660 м
[Cu Sc Ac As]
+17.2 +11.5 69 +16 +17 1013.3 980.2
06 14.07 СЗ 7 30 км 5/4 660 м
[Cu Sc Ac lent Ci fib]
+18.7 +11.8 64 +19 +19 1013.3 980.3 +16.3
07 14.07 СЗ 6 н/о н/о +19.2 +11.4 61 +20 +20 1013.2 980.8
08 14.07 СЗ 8 н/о н/о +20.8 +11.3 54 +22 +22 комфорт 1013.0 980.8
09 14.07 С 15 45 км 1/1 1350 м
[Cu hum]
+21.2 +11.0 52 +23 +23 комфорт 1013.6 980.9
10 14.07 СЗ 6 н/о н/о +22.5 +10.2 46 +24 +24 комфорт 1012.8 980.8
11 14.07 С 5 н/о н/о +22.6 +8.7 41 +24 +24 комфорт 1012.3 980.3
12 14.07 С 7 45 км 6/3 1350 м
[Cu Sc Ac lent Ci fib]
+22.6 +9.7 44 +24 +27 комфорт 1012.3 979.8
13 14.07 С 7 45 км 6/3 1350 м
[Cu Sc Ac lent Ci fib]
+22.6 +9.7 44 +24 +26 комфорт 1012.3 979.8
14 14.07 СЗ 5 н/о в посл. час осадки н/о +20.7 +11.5 56 +23 +23 комфорт 1012.3 980.1 0.1
15 14.07 С 7 20 км слаб. ливневой дождь 9/9 600 м
[Cu Sc]
+18.5 +13.4 72 +18 +19 1013.2 980.2
16 14.07 СЗ 4 н/о в посл. час осадки н/о +19.3 +13.8 70 +21 +21 комфорт 1012.6 980.3 0.2
17 14.07 СЗ 5 н/о н/о +21.2 +11.7 55 +23 +23 комфорт 1012.3 980.2
18 14.07 СЗ 5 30 км в посл. час ливневой дождь 9/5 600 м
[Cu Sc Ac As]
+16.8 +12.8 77 +16 +16 1013.9 980.7 +24.4 0.5
19 14.07 СЗ 2 н/о н/о +17.0 +12.0 72 +17 +17 1013.3 980.7 0.0
20 14.07 СЗ 6 н/о н/о +17.1 +12.0 72 +16 +16 1013.6 981.0 0.0
21 14.07 СЗ 5 н/о н/о +16.7 +11.6 72 +16 +16 1013.9 981.2 0.0
22 14.07 СЗ 2 н/о н/о +14.9 +11.1 78 +15 +15 1014.1 981.2
23 14.07 З 2 н/о н/о +15.1 +10.9 76 +15 +15 1014.4 981.5
00 15.07 С 3 н/о н/о +15.1 +11.1 77 +14 +14 1014.3 981.5 0.0
01 15.07 Ю 1 н/о н/о +14.3 +10.9 80 +15 +15 1014.1 981.2
02 15.07 СЗ 3 н/о н/о +14.2 +10.8 80 +13 +13 1013.7 980.8
03 15.07 С 1 н/о н/о +13.0 +10.6 85 +13 +13 1014.0 980.9
04 15.07 С 2 н/о н/о +13.9 +11.0 83 +13 +13 1014.2 981.2
05 15.07 СЗ 3 35 км 3/1 750 м
[Cu hum Ac lent]
+16.0 +12.0 77 +16 +17 1014.8 981.5
06 15.07 СЗ 4 35 км 5/4 900 м
[Cu Sc Ac lent]
+17.2 +11.9 71 +17 +18 1015.1 981.9 +12.7 0.0
07 15.07 С 4 н/о н/о +18.4 +11.4 64 +19 +19 1014.7 982.2
08 15.07 СЗ 4 н/о н/о +19.2 +11.6 61 +20 +20 1014.6 982.2
09 15.07 С 5 40 км 4/3 1200 м
[Cu Sc Ac lent Ci fib]
+20.6 +11.3 55 +22 +28 комфорт 1014.9 982.1
10 15.07 С 4 н/о н/о +22.2 +10.1 46 +24 +24 комфорт 1013.9 981.8
11 15.07 С 4 н/о н/о +22.9 +7.9 38 +24 +24 комфорт 1013.6 981.6
12 15.07 С 5 40 км 8/8 1200 м
[Cu med, cong]
+23.3 +9.0 40 +25 +27 комфорт 1014.0 981.5
13 15.07 С 3 н/о н/о +23.5 +6.0 32 +24 +24 комфорт 1013.1 981.2
14 15.07 СВ 4 н/о н/о +23.7 +5.1 30 +24 +24 комфорт 1012.9 981.0
15 15.07 С 4 40 км 5/5 1200 м
[Cu hum]
+24.8 +6.5 31 +25 +27 комфорт 1013.1 980.8
16 15.07 С 3 н/о н/о +24.6 +7.1 33 +25 +25 комфорт 1012.2 980.4
17 15.07 С 5 н/о н/о +23.7 +8.6 38 +24 +24 комфорт 1012.4 980.5
18 15.07 С 6 40 км 1/1 1200 м
[Cu hum Ac lent]
+22.6 +9.1 42 +24 +24 комфорт 1013.0 980.5 +25.3
19 15.07 СЗ 3 н/о н/о +18.8 +9.7 55 +20 +20 1013.4 981.0
20 15.07 СЗ 3 н/о н/о +15.5 +9.6 68 +15 +15 1014.3 981.5
21 15.07 С 3 н/о н/о +16.6 +10.1 65 +16 +16 1014.6 981.9
22 15.07 ЮЗ 1 н/о н/о +15.4 +9.8 69 +16 +16 1014.8 982.0
23 15.07 З 1 н/о н/о +14.4 +9.5 72 +15 +15 1015.1 982.1
00 16.07 ЮЗ 1 н/о н/о +12.4 +8.9 79 +12 +12 1015.3 982.1
01 16.07 З 1 н/о н/о +11.7 +8.8 82 +12 +12 1015.4 982.1
02 16.07 ЮЗ 1 н/о н/о +11.5 +8.8 83 +11 +11 1015.3 982.0
03 16.07 ЮЗ 1 н/о н/о +10.8 +8.7 87 +10 +10 1015.4 982.0
04 16.07 ЮЗ 1 н/о н/о +10.2 +8.2 87 +10 +10 1015.4 981.9
05 16.07 45 км 5/1 1350 м
[Cu hum Ci fib]
+13.1 +9.5 79 1015.7 982.0
06 16.07 С 1 40 км 8/1 1350 м
[Cu hum Ci fib]
+16.6 +10.2 66 +18 +21 1015.2 981.9 +9.8
07 16.07 В 2 н/о н/о +20.5 +10.4 52 +23 +23 комфорт 1014.2 981.9
08 16.07 СВ 3 н/о н/о +21.9 +11.4 51 +24 +24 комфорт 1013.9 981.8
09 16.07 45 км 4/3 1500 м
[Cu med, cong Ci fib]
+23.4 +11.5 47 1013.6 981.1
10 16.07 СЗ 3 н/о н/о +24.4 +10.0 40 +25 +25 комфорт 1012.6 980.8
11 16.07 СЗ 4 н/о н/о +26.1 +9.1 34 +26 +26 жарко 1012.0 980.4
12 16.07 СЗ 7 40 км 5/5 1350 м
[Cu med, cong Ci fib]
+27.0 +8.4 31 +27 +29 жарко 1012.1 1098.0
13 16.07 З 6 н/о н/о +27.7 +6.2 26 +27 +27 жарко 1011.2 979.8
14 16.07 З 5 н/о н/о +26.3 +6.9 29 +26 +26 жарко 1011.4 979.8
15 16.07 С 7
{13}
35 км 6/6 1350 м
[Cu Sc]
+26.6 +7.1 29 +26 +27 жарко 1011.6 979.5
16 16.07 СЗ 8 н/о н/о +26.7 +6.6 28 +26 +26 жарко 1010.6 979.1
17 16.07 СЗ 7 н/о н/о +26.1 +8.0 32 +26 +26 жарко 1010.8 979.2
18 16.07 СЗ 6
{13}
35 км 1/1 1350 м
[Cu hum]
+24.9 +8.4 35 +25 +25 комфорт 1011.9 979.6 +28.0
19 16.07 З 4 н/о н/о +22.9 +8.4 39 +24 +24 комфорт 1012.2 980.2
20 16.07 З 5 н/о н/о +22.3 +7.8 39 +23 +23 комфорт 1012.8 980.8
21 16.07 С 2 н/о н/о +19.7 +8.8 49 +21 +21 комфорт 1013.5 981.2
22 16.07 СВ 2 н/о н/о +19.3 +10.7 57 +21 +21 комфорт 1013.8 981.4
23 16.07 СВ 1 н/о н/о +15.6 +10.0 69 +16 +16 1014.8 982.0
00 17.07 СЗ 2 н/о н/о +14.0 +9.5 74 +14 +14 1015.1 982.1
01 17.07 С 2 н/о н/о +14.6 +9.8 73 +14 +14 1014.9 982.0
02 17.07 СЗ 2 н/о н/о +12.7 +9.0 78 +12 +12 1015.3 982.1
03 17.07 ЮЗ 1 н/о н/о +13.1 +9.2 77 +13 +13 1015.2 982.1
04 17.07 З 1 н/о н/о +12.1 +9.2 82 +12 +12 1015.4 982.2
05 17.07 С 3 35 км 4/1 1350 м
[Cu hum Ci fib]
+13.8 +10.2 79 +13 +14 1015.6 982.0
06 17.07 ЮЗ 2 35 км 4/1 1350 м
[Cu hum Ci fib]
+17.8 +9.4 58 +18 +22 1015.3 982.2 +10.7
07 17.07 СВ 3 н/о н/о +19.4 +8.8 50 +20 +20 1014.4 982.0
08 17.07 СВ 2 н/о н/о +20.4 +9.2 49 +22 +22 комфорт 1013.8 981.5
09 17.07 В 3 35 км 8/1 1350 м
[Cu hum Ci fib]
+22.0 +9.9 46 +24 +33 комфорт 1013.7 981.1
10 17.07 В 3 н/о н/о +23.3 +10.3 44 +25 +25 комфорт 1012.7 980.8
11 17.07 В 3 н/о н/о +24.6 +10.6 41 +26 +26 жарко 1011.8 980.1
12 17.07 С 3 45 км 6/1 1500 м
[Cu hum Ci fib]
+25.9 +1.0 20 +24 +35 комфорт 1011.7 979.6
13 17.07 В 6 н/о н/о +26.1 +10.9 39 +27 +27 жарко 1010.9 979.3
14 17.07 В 4 н/о н/о +27.3 +11.1 36 +28 +28 жарко 1010.5 979.1
15 17.07 ЮВ 4 40 км 8/3 1500 м
[Cu med, cong Ci fib]
+27.2 +10.8 36 +28 +31 жарко 1010.8 978.8
16 17.07 В 5 н/о н/о +26.6 +10.9 37 +27 +27 жарко 1009.9 978.4
17 17.07 ЮВ 3 н/о н/о +25.9 +11.1 40 +27 +27 жарко 1009.9 978.4
18 17.07 ЮВ 3 40 км 8/3 1500 м
[Cu med, cong Ci fib]
+25.6 +11.4 41 +27 +27 жарко 1010.5 978.4 +27.9
19 17.07 В 3 н/о н/о +24.1 +11.7 46 +26 +26 жарко 1010.4 978.7
20 17.07 Ю 1 н/о н/о +23.3 +12.0 49 +26 +26 жарко 1011.0 979.2
21 17.07 Ю 1 н/о н/о +22.1 +11.8 52 +24 +24 комфорт 1011.0 979.0
22 17.07 СЗ 3 н/о н/о +17.6 +12.0 70 +18 +18 1011.6 979.1
23 17.07 З 1 н/о н/о +17.4 +11.9 70 +18 +18 1012.0 979.5
00 18.07 З 3 н/о н/о +16.1 +12.1 77 +16 +16 1011.8 979.2
01 18.07 СЗ 3 н/о н/о +15.5 +11.7 78 +15 +15 1011.8 979.1
02 18.07 С 3 н/о н/о +17.1 +12.0 72 +17 +17 1012.0 979.5
03 18.07 С 1 н/о н/о +16.4 +11.4 72 +17 +17 1012.3 979.7
04 18.07 ЮЗ 1 н/о н/о +15.4 +11.0 75 +16 +16 1012.8 980.0
05 18.07 ЮЗ 2 40 км 4/1 1050 м
[Cu Sc Ac lent Ci fib]
+16.8 +11.5 71 +17 +18 1013.3 980.1
06 18.07 ЮЗ 3 40 км 4/1 1050 м
[Cu Sc Ac lent Ci fib]
+19.7 +11.2 58 +21 +24 комфорт 1012.9 980.1 +15.0
07 18.07 ЮЗ 2 н/о н/о +22.0 +10.6 48 +24 +24 комфорт 1012.0 980.0
08 18.07 В 1 н/о н/о +23.1 +10.4 45 +25 +25 комфорт 1011.9 980.0
09 18.07 В 3 40 км 4/1 1350 м
[Cu Sc Ac lent Ci fib]
+23.2 +11.0 46 +25 +35 комфорт 1012.7 980.2
10 18.07 В 4 н/о н/о +23.9 +11.0 44 +25 +25 комфорт 1011.8 980.0
11 18.07 ЮВ 2 н/о н/о +24.7 +11.1 42 +26 +26 жарко 1011.5 979.8
12 18.07 ЮВ 4 35 км 6/4 1500 м
[Cb cap Ac lent Ci fib]
+26.0 +11.4 40 +27 +33 жарко 1011.6 979.5
13 18.07 С 9
{16}
н/о осадки н/о +19.0 +14.4 75 +19 +19 1012.4 980.1 4
14 18.07 ЮВ 2
{16}
н/о в посл. час осадки н/о +21.6 +15.9 70 +25 +25 комфорт 1011.9 979.9 5
15 18.07 С 2
{15}
35 км {гроза, ливн. осадки} 5/3 1500 м
[Cu Sc Ac lent Ci fib]
+25.1 +11.3 42 +26 +31 жарко 1011.9 979.7
16 18.07 ЮВ 1 н/о н/о +26.0 +10.6 38 +27 +27 жарко 1011.2 979.6
17 18.07 В 3 н/о н/о +25.4 +11.8 43 +27 +27 жарко 1011.4 979.8
18 18.07 ЮЗ 3
{15}
35 км {гроза, ливн. осадки} 6/1 1500 м
[Cu Sc Ac lent Ci fib]
+23.9 +12.2 48 +26 +26 жарко 1012.5 978.0 +27.0 9
19 18.07 Ю 3 н/о н/о +22.3 +12.5 54 +25 +25 комфорт 1012.3 980.3
20 18.07 ЮЗ 3 н/о н/о +20.2 +12.8 62 +22 +22 комфорт 1013.2 981.0
21 18.07 Ю 2 н/о н/о +19.5 +12.6 64 +21 +21 комфорт 1013.5 981.2
22 18.07 З 2 н/о н/о +16.7 +12.3 75 +17 +17 1013.8 981.2
23 18.07 ЮЗ 2 н/о н/о +16.1 +12.1 77 +16 +16 1014.2 981.5
00 19.07 ЮЗ 2 н/о н/о +15.3 +11.8 80 +15 +15 1014.4 981.6
01 19.07 ЮЗ 2 н/о н/о +14.3 +11.3 82 +14 +14 1014.5 981.6
02 19.07 ЮЗ 2 н/о н/о +14.1 +11.0 82 +14 +14 1014.8 981.8
03 19.07 ЮЗ 2 н/о н/о +13.3 +10.9 85 +13 +13 1015.0 981.9
04 19.07 штиль 0 н/о н/о +12.6 +10.6 88 +12 +12 1015.2 982.0
05 19.07 35 км 5/1 1500 м
[Sc Ac lent Ci fib]
+15.4 +11.8 79 1015.6 982.2
06 19.07 С 1 40 км 6/1 1200 м
[Cu Sc Ac lent Ci fib]
+19.2 +11.5 61 +21 +25 комфорт 1015.5 982.5 +12.6
07 19.07 СВ 1 н/о н/о +21.4 +11.7 54 +23 +23 комфорт 1014.9 982.7
08 19.07 СВ 2 н/о н/о +22.9 +12.9 53 +26 +26 жарко 1014.9 982.9
09 19.07 В 3 40 км 5/1 1500 м
[Cu Sc Ac lent Ci fib]
+25.6 +13.1 46 +28 +36 жарко 1015.5 983.0
10 19.07 В 3 н/о н/о +27.4 +12.4 39 +29 +29 жарко 1014.5 983.0
11 19.07 В 2 н/о в посл. час осадки н/о +27.7 +11.1 36 +29 +29 жарко 1014.1 982.6 0.5
12 19.07 Ю 4 35 км слаб. ливневой дождь {гроза} 9/4 1500 м
[Cb cap Ac lent Ci fib]
+21.3 +16.3 73 +25 +29 комфорт 1015.7 983.0 8
13 19.07 ЮВ 1 н/о ливневой дождь н/о +24.2 +16.1 61 +28 +28 душно 1014.5 982.7 0.3
14 19.07 Ю 2 н/о ливневой дождь н/о +25.0 +14.5 52 +28 +28 жарко 1014.4 982.7 0.1
15 19.07 С 2 35 км слаб. ливневой дождь 8/3 1500 м
[Cu Sc Ac lent Ci fib]
+23.6 +16.6 65 +27 +30 жарко 1015.4 983.0
16 19.07 ЮЗ 3 н/о н/о +25.6 +13.7 48 +28 +28 жарко 1014.7 983.0 0.0
17 19.07 ЮЗ 6 н/о н/о +24.7 +13.4 49 +27 +27 жарко 1014.8 983.0

 

Местоположение метеостанции Винер-Нойштадт (Австрия): широта 47.83 долгота 16.22 высота над уровнем моря 285 м.

В архиве по умолчанию представлена погода в Винер-Нойштадт за последнюю неделю. Архивные данные за месяц целиком и за предыдущие месяцы, начиная с января 2011 года, Вы можете получить, выбрав интересующий диапазон дат из раскрывающегося списка и нажав кнопку "Ввод!".


*Определитесь, кто Вы:
робот инопланетянин человек

Внимание! Время в таблицах - всемирное. Для получения местного времени необходимо прибавить поправку, которая равна 1 ч.

Смотрите также архив погоды в соседних городах и на ближайших метеорологических станциях:

Погода в Хоэ-Ванде (Австрия) (14 км)
Погода в Гумпольдскирхене (Австрия) (23 км)
Погода в Айзенштадте (Австрия) (23 км)
Погода в Пухберг-ам-Шнеберге (Австрия) (25 км)
Погода в Марияхильфберге (Австрия) (26 км)
Погода в Зайберсдорфе (Австрия) (27 км)
Погода в Райхенау-ан-дер-Раксе (Австрия) (33 км)
Погода в Шопроне (Венгрия) (33 км)
Погода в Крумбахе (Австрия) (33 км)
Погода в Раксе (Австрия) (35 км)

Пояснения к столбцам:

Ветер - указаны скорость ветра в м/с - средняя за 10 мин, порывы в срок и между сроками (в фигурных скобках) и направление, откуда дует ветер: С - северный, СВ - северо-восточный, В - восточный, ЮВ - юго-восточный, Ю - южный, ЮЗ - юго-западный, З - западный, СЗ - северо-западный.
Видимость - горизонтальная дальность видимости в метрах или километрах. При видимости от 1 до 10 км при отсутствии осадков обычно наблюдается дымка, при ухудшении видимости до 1 км и менее - туман. В сухую погоду видимость может ухудшаться дымом, пылью или мглою.
Явления - указаны атмосферные явления, наблюдавшиеся в срок или в последний час перед сроком; фигурными скобками обозначены явления, наблюдавшиеся между сроками (за 1-3 часа до срока); квадратными скобками обозначены град или гололедные отложения с указанием их диаметра в мм.
Облачность - указаны через наклонную черту общая и нижняя облачность в баллах и высота нижней границы облаков в метрах; квадратными скобками обозначены формы облаков: Ci - перистые, Cs - перисто-слоистые, Cc - перисто-кучевые, Ac - высококучевые, As - высокослоистые, Sc - слоисто-кучевые, Ns - слоисто-дождевые, Cu - кучевые, Cb - кучево-дождевые. Подробнее классификацию облаков см. в Атласе облаков (PDF).
T - Температура воздуха - температура, измеренная на высоте 2 м над землей.
Td - Температура точки росы - температура, при понижении до которой содержащийся в воздухе водяной пар достигнет насыщения.
f - Относительная влажность воздуха - влажноcть воздуха, измеренная на высоте 2 м над землей.
Te - Эффективная температура - температура, которую ощущает одетый по сезону человек в тени. Характеристика душности погоды. При расчете учитывается влияние влажности воздуха и скорости ветра на теплоощущения человека.
Tes - Эффективная температура на солнце - температура, которую ощущает человек, с поправкой на солнечный нагрев. Характеристика знойности погоды. Зависит от высоты солнца над горизонтом, облачности и скорости ветра. Ночью, в пасмурную погоду, а также при ветре 12 м/с и более поправка равна нулю.
P - Атмосферное давление - приведенное к уровню моря атмосферное давление.
Po - Атмосферное давление - измеренное на уровне метеостанции атмосферное давление.
Tmin - Минимальная температура - минимум температуры воздуха на высоте 2 м над землей.
Tmax - Максимальная температура - максимум температуры воздуха на высоте 2 м над землей.
R - Количество осадков - Количество выпавших осадков за период времени, мм. При наведении курсора мыши на число - период времени, за который выпало указанное количество осадков.
R24 - Количество осадков - Количество выпавших осадков за 24 часа, мм.
S - Снежный покров - Высота снежного покрова, см. При наведении курсора мыши на число - состояние снежного покрова и степень покрытия местности в баллах.